Theta_e
320 320 324 332 335 338 350 347 347 346 348 342 348 353 358 357 355 357 349 350 344 330 333 337 340 341 330 327 329 327 328 332 338 340 340 338 337 337 337 338 340 340 339 339 339 338 336 336 340
323 325 328 327 334 341 344 344 345 344 346 343 345 352 357 360 354 351 349 347 337 329 334 339 342 341 332 328 329 328 327 330 334 338 339 340 338 338 337 338 339 341 341 341 340 339 338 335 334
324 328 324 325 331 341 343 343 342 341 343 348 352 350 353 357 352 350 351 344 333 331 331 334 342 341 337 335 329 330 327 328 330 334 335 338 337 336 338 338 338 339 340 340 341 340 339 338 336
325 324 320 327 333 336 341 340 341 338 344 344 346 342 343 346 347 351 350 345 344 332 333 338 340 341 341 341 331 331 331 329 329 331 332 334 336 335 336 336 337 338 340 341 341 340 339 338 336
325 318 322 324 326 339 339 338 337 340 347 341 339 339 341 340 343 351 349 346 347 339 331 333 340 343 343 342 334 330 333 334 332 330 330 332 335 335 333 334 335 336 337 338 340 340 339 337 337
320 316 319 320 323 339 338 338 338 343 344 342 340 341 340 335 340 345 345 349 349 342 336 334 343 348 346 343 340 333 333 337 338 335 332 333 335 336 334 333 334 335 336 337 338 336 337 338 337
319 317 319 319 324 334 338 336 337 346 345 342 337 338 336 338 344 346 343 350 349 345 339 336 332 328 332 341 343 341 337 338 342 340 337 336 336 335 333 332 333 334 334 335 335 337 339 339 339
315 314 317 316 327 335 335 334 330 344 344 338 335 333 332 339 343 344 343 344 336 349 347 341 334 333 328 330 335 340 341 341 340 339 336 335 335 334 334 334 333 332 333 333 333 335 335 335 336
316 316 314 317 324 324 329 328 328 337 339 338 336 332 337 343 342 341 337 339 341 346 338 339 346 342 339 333 330 331 333 336 337 337 336 335 334 334 333 331 334 337 335 332 336 337 336 334 333
315 315 318 319 319 322 320 322 326 338 339 337 338 338 342 343 337 337 337 334 338 339 337 332 336 343 342 344 337 331 328 329 329 330 332 331 330 329 334 341 346 345 344 343 341 341 340 337 335
317 316 319 318 319 319 318 319 320 325 329 340 340 336 335 344 345 343 341 333 335 336 335 329 339 341 341 331 335 338 336 335 331 331 329 338 346 349 353 351 345 349 347 346 344 344 341 336 333
319 317 317 319 317 319 320 319 319 321 327 331 331 331 337 336 340 340 337 334 334 338 333 329 333 341 341 329 332 339 347 347 347 346 343 346 349 350 337 330 331 335 333 335 344 345 343 336 334
319 319 317 316 317 318 319 319 319 320 331 331 331 330 332 336 333 332 336 336 336 331 333 330 334 342 339 337 340 337 337 343 345 346 348 348 337 335 330 331 329 330 330 330 332 337 343 337 336
320 318 318 317 316 319 319 320 321 320 331 332 331 330 330 333 337 341 342 338 342 341 342 340 339 336 341 339 340 338 340 334 335 346 334 330 330 329 328 328 327 325 325 329 331 333 334 332 331
319 320 317 318 317 317 319 321 321 321 331 332 331 331 331 333 335 336 338 341 336 335 335 335 333 333 332 331 330 329 331 331 331 330 328 325 323 322 324 325 324 320 323 326 326 324 322 322 322
320 317 317 316 318 318 320 323 322 322 331 332 331 331 332 331 332 334 333 334 334 334 334 333 331 330 331 331 330 329 329 327 329 327 326 325 325 324 321 323 321 321 323 322 322 320 318 318 321
316 318 319 321 317 319 319 323 323 322 331 331 331 330 331 331 331 332 332 332 332 331 329 329 328 328 331 330 329 329 329 329 329 328 327 325 325 324 323 325 326 325 326 326 324 322 323 322 321
320 319 319 323 322 319 322 324 323 323 328 329 330 330 330 331 331 332 332 331 331 332 331 330 327 327 329 330 329 328 328 326 324 325 327 326 326 327 327 328 328 327 327 326 325 323 323 326 323
320 321 322 322 321 321 323 323 323 322 324 326 328 329 329 330 330 332 332 330 330 330 328 324 323 323 324 325 326 323 323 323 324 323 325 324 324 326 326 326 327 327 325 322 320 320 323 327 324
318 318 318 320 319 319 322 325 323 322 322 325 326 327 327 326 325 329 330 329 329 328 327 324 322 322 321 319 318 317 316 315 315 315 315 318 323 322 322 323 325 324 322 320 323 325 327 327 326
319 318 319 319 317 317 317 316 324 324 322 323 324 324 323 323 322 321 324 329 329 329 328 326 323 321 319 317 317 316 316 316 315 314 316 318 319 320 319 321 320 321 321 319 321 325 325 325 325
323 320 320 318 316 315 316 314 313 323 323 322 321 319 319 319 319 319 320 320 322 322 325 323 321 319 319 318 318 317 316 315 313 312 313 313 313 313 313 316 319 318 319 322 321 318 318 325 326
322 321 320 319 317 316 315 314 315 323 323 322 319 320 319 318 316 316 315 317 316 318 321 320 319 319 319 319 317 316 316 315 314 314 314 313 313 313 313 318 320 318 317 319 323 325 325 325 325
319 318 315 315 313 316 317 317 323 322 322 320 320 320 319 315 312 314 316 316 315 316 316 316 315 315 313 313 317 319 318 316 316 316 315 314 313 313 316 316 319 318 317 316 316 317 319 319 320
316 313 314 316 321 318 316 325 324 322 320 319 319 318 314 314 313 313 314 314 315 315 314 312 312 312 312 313 313 313 314 316 317 317 316 315 315 315 315 316 316 315 314 315 314 315 315 315 314
317 314 315 321 320 316 319 327 323 320 320 318 317 315 315 315 313 314 314 312 312 311 312 312 311 311 311 311 311 311 310 310 310 310 310 313 315 315 315 315 314 313 312 312 312 311 311 312 311
317 318 315 317 320 318 320 324 321 321 320 318 315 316 317 316 312 311 311 310 311 311 311 311 311 310 310 309 309 309 309 310 309 309 310 311 311 312 312 311 310 309 308 310 310 309 309 309 309
314 316 313 316 325 322 318 322 323 321 319 316 314 312 312 310 307 307 309 311 311 311 311 310 310 309 309 309 309 309 309 309 309 309 309 309 309 310 310 310 310 310 309 309 308 307 308 310 310
318 319 313 314 317 318 321 319 316 319 317 314 314 312 311 307 306 306 308 311 311 311 310 309 309 309 309 308 308 307 307 307 307 306 306 305 305 306 308 308 308 308 309 309 308 308 308 308 309
316 314 314 317 318 319 320 320 318 314 314 312 312 310 308 309 309 308 307 310 310 310 310 309 309 308 307 306 305 304 304 303 303 304 304 304 305 306 307 309 309 308 307 307 308 308 308 309 309
Wind_Speed
12 8 4 1 4 6 0 2 1 4 5 4 17 13 11 4 2 3 8 17 17 19 16 13 14 18 18 18 17 15 14 13 12 11 11 11 9 11 11 10 9 9 10 10 10 10 10 10 10
12 2 2 1 4 3 3 1 3 5 11 16 13 9 4 5 4 10 11 13 15 18 16 14 13 17 17 17 16 15 14 12 11 10 9 8 7 7 8 8 7 6 6 6 7 7 7 7 7
12 2 3 4 3 1 3 4 6 5 17 11 9 3 2 5 2 8 13 17 17 16 14 13 13 16 15 13 14 13 12 11 11 10 9 7 5 5 5 6 6 5 4 4 3 4 4 5 5
4 6 4 4 2 4 7 7 6 9 4 6 3 2 1 2 6 12 21 20 18 15 13 11 11 13 13 11 11 12 11 9 8 9 8 8 7 6 5 5 5 4 3 2 2 1 2 2 3
3 3 3 3 2 3 4 7 9 4 6 3 1 3 5 5 14 23 20 17 17 14 12 10 9 9 9 9 9 9 9 8 7 6 7 7 7 6 6 5 4 4 4 4 2 2 3 3 3
4 3 4 5 3 5 3 3 9 4 6 1 3 4 3 17 23 20 19 18 17 17 13 11 9 7 4 6 6 8 8 6 5 6 7 7 7 7 7 7 6 6 7 6 5 5 5 5 6
5 4 4 3 5 1 3 5 9 6 6 4 7 3 3 26 35 30 26 22 19 14 13 12 10 7 3 1 4 6 7 7 7 7 7 7 7 8 8 9 9 9 9 9 9 8 7 7 8
5 4 7 4 4 3 6 3 10 13 7 2 7 1 6 14 37 36 30 22 14 10 13 16 12 7 5 1 4 5 7 9 10 11 10 10 9 10 10 12 12 12 12 11 10 9 10 10 10
4 4 4 5 9 3 4 4 7 8 8 4 5 6 27 30 32 28 24 18 12 13 14 11 11 8 5 4 2 7 8 10 10 11 11 10 10 10 11 14 14 15 13 11 11 12 12 11 11
5 3 4 4 1 12 5 11 7 7 4 4 4 24 28 24 16 17 8 10 6 6 8 6 5 5 7 5 6 6 8 10 11 11 11 12 11 10 9 12 16 17 16 13 13 14 11 13 12
4 6 5 1 12 9 9 11 2 12 5 3 9 16 13 17 13 10 7 10 4 5 8 10 6 3 3 6 4 7 7 11 13 14 11 10 8 7 9 11 10 6 12 14 14 14 10 10 15
2 6 6 4 7 6 8 6 7 15 13 19 24 22 20 13 11 12 9 5 2 10 9 10 4 2 4 10 7 9 10 16 14 13 12 12 10 7 2 3 2 3 4 6 10 10 11 11 11
5 6 5 9 12 8 8 7 9 18 21 21 25 24 18 18 21 19 12 10 12 14 11 6 12 7 6 11 13 14 15 15 16 18 13 10 6 6 3 5 4 7 7 7 5 6 12 11 9
2 5 5 4 9 6 13 3 7 10 24 21 23 19 18 20 18 20 20 18 18 17 16 17 13 15 10 8 13 15 9 10 10 6 4 3 4 3 4 3 5 5 5 5 5 3 3 2 1
1 3 4 2 7 6 11 5 5 10 21 21 21 18 18 22 26 27 27 25 23 23 21 18 17 13 11 8 12 15 12 12 5 3 5 8 7 5 3 1 3 3 4 6 5 4 3 3 4
6 4 4 4 4 3 8 3 3 10 20 16 18 17 17 15 24 30 27 24 21 17 12 10 11 12 9 12 15 11 13 15 8 6 8 6 6 6 6 4 4 3 4 5 4 7 8 8 9
7 5 4 3 6 6 6 5 4 9 18 14 14 14 16 15 20 27 26 23 20 17 14 10 6 7 10 13 16 18 17 21 24 14 7 9 5 6 7 2 3 4 4 7 8 9 11 13 14
3 5 6 4 3 4 5 3 5 6 15 14 13 12 13 13 12 27 25 20 18 18 17 14 10 7 3 2 5 9 12 16 18 20 15 15 17 13 7 3 2 3 5 9 12 13 15 13 13
8 6 3 3 6 4 4 7 8 8 11 11 11 11 10 11 15 26 24 21 19 17 14 11 13 11 8 5 3 3 8 15 17 19 15 16 17 18 16 10 7 6 9 17 18 15 15 10 9
9 8 6 4 10 6 6 6 7 3 4 11 13 10 9 7 7 16 20 20 20 18 16 14 10 9 7 6 7 5 3 5 12 13 16 22 22 19 18 20 21 18 26 18 13 11 10 7 10
4 6 3 3 5 5 3 6 5 3 7 7 7 10 8 11 9 7 15 19 19 19 18 11 9 8 6 3 3 6 8 7 11 16 16 12 12 11 16 16 19 17 25 25 12 10 9 14 16
3 3 3 5 4 2 3 4 5 5 7 8 8 8 8 7 5 7 13 9 5 6 9 9 10 11 12 11 11 9 8 10 12 15 20 20 18 15 16 16 17 14 23 27 19 15 20 15 13
5 3 3 3 3 2 4 3 7 6 4 1 1 4 5 6 6 3 10 16 13 13 13 11 9 12 11 12 12 12 13 13 14 16 19 22 22 18 14 13 3 3 6 8 4 9 9 8 8
2 5 6 5 3 3 4 4 6 3 2 4 5 6 5 6 7 11 12 4 4 6 6 8 8 3 3 7 11 15 17 18 19 21 22 22 25 23 14 15 13 10 9 8 8 8 7 7 8
12 7 5 6 5 4 5 6 4 5 5 7 7 5 7 6 6 5 8 10 2 5 5 8 12 15 13 13 13 12 14 15 16 22 24 27 25 21 21 21 22 20 16 13 9 9 11 13 13
2 6 5 2 1 5 6 3 4 5 4 5 6 8 6 6 1 3 7 13 12 14 19 18 15 15 15 15 17 19 22 22 21 20 20 18 20 22 23 21 19 17 17 20 19 16 18 19 20
4 3 4 4 2 2 2 2 5 2 3 3 7 7 5 3 6 8 11 17 19 14 13 12 14 16 17 19 23 25 25 23 22 22 22 21 17 16 16 18 19 21 21 21 19 18 23 25 25
5 3 3 3 0 3 3 1 4 5 5 6 6 6 4 6 7 6 10 12 12 11 10 12 16 19 20 19 18 20 21 19 20 21 15 14 16 20 21 19 19 19 20 19 15 17 17 18 21
2 2 5 4 5 5 1 5 6 4 5 7 4 3 1 4 3 3 5 9 8 7 8 14 14 14 16 17 19 22 22 23 23 23 24 27 29 27 24 22 23 21 20 20 21 19 17 18 19
4 5 5 5 4 1 4 6 5 8 6 7 4 4 5 5 0 3 6 8 7 8 13 15 14 14 19 27 32 30 25 24 23 22 22 22 20 19 18 18 19 21 22 22 22 20 18 18 18
Wind_Direction
342 335 334 55 50 57 339 278 167 87 92 73 338 302 83 126 139 184 156 174 161 152 148 148 152 159 156 151 146 143 143 140 132 117 114 112 112 113 110 107 102 103 106 105 102 98 95 93 87
343 25 119 77 81 31 286 278 353 169 135 141 192 253 126 71 70 116 126 151 158 147 143 137 143 156 156 154 150 146 149 149 147 141 127 118 124 127 120 118 116 110 108 107 106 100 89 80 78
334 318 81 92 93 221 195 182 183 140 157 174 182 219 24 121 54 133 159 148 145 138 132 125 135 152 155 156 157 152 151 159 158 163 152 148 147 152 144 136 137 141 137 129 113 100 80 60 46
331 5 19 74 266 302 170 184 185 132 135 252 211 76 73 164 6 135 145 147 135 129 124 120 129 150 158 161 163 163 161 167 172 178 175 180 180 183 187 177 176 172 183 180 166 111 89 69 27
42 55 32 352 267 206 235 179 140 130 166 181 239 197 93 68 54 141 136 135 127 117 112 113 115 135 155 159 164 174 180 181 188 193 202 206 209 210 215 223 231 231 229 243 257 304 301 315 339
17 100 12 304 232 206 303 159 138 137 176 134 46 106 61 30 56 61 85 83 83 91 90 83 75 69 104 155 174 186 194 205 220 225 230 235 237 241 243 252 260 270 276 275 277 274 283 301 308
122 88 251 273 314 360 173 174 139 130 144 242 151 102 119 75 79 83 85 84 82 92 100 88 75 59 57 206 205 206 211 217 228 235 240 251 260 264 264 269 270 275 276 280 281 287 294 294 294
101 87 329 299 290 86 186 154 132 154 204 94 175 161 131 138 103 95 86 80 25 101 85 96 99 96 98 347 268 240 229 226 230 236 238 240 248 258 268 274 279 280 280 286 287 286 281 279 280
107 39 295 273 83 353 62 119 153 155 133 230 179 94 103 111 115 108 107 120 166 166 120 88 118 123 123 135 269 264 252 241 242 243 243 248 250 260 274 280 283 287 283 273 275 273 274 275 277
86 92 270 214 292 126 110 94 111 110 103 30 48 78 98 116 116 147 135 158 119 139 127 114 89 90 173 178 169 214 252 257 251 249 254 255 259 268 276 284 290 284 280 273 265 270 277 272 274
187 172 236 35 121 116 96 71 117 115 67 50 95 92 90 105 117 117 148 192 15 134 99 61 107 85 228 252 241 269 248 254 256 246 232 241 253 262 290 293 301 286 278 270 261 262 255 281 279
151 211 192 107 119 97 104 117 62 73 87 90 91 94 94 111 97 102 115 186 45 88 94 50 7 317 274 196 272 271 271 266 252 253 240 245 252 267 251 230 266 190 215 240 250 245 241 273 284
106 170 104 114 113 117 124 109 129 101 106 95 89 85 83 89 100 109 99 79 98 87 98 54 24 5 230 248 284 287 290 284 273 255 251 237 246 207 208 222 157 136 137 163 194 228 246 273 285
160 93 136 161 140 128 117 173 87 109 116 103 97 92 93 95 99 93 93 85 72 54 52 73 62 42 37 332 326 318 285 316 309 252 193 246 276 250 234 175 120 116 110 120 127 152 202 177 342
169 39 29 205 166 141 111 25 131 124 102 108 108 109 104 101 96 97 99 100 90 78 72 69 54 48 39 13 6 12 17 337 262 297 307 306 308 295 286 134 66 95 109 114 99 76 26 1 351
9 59 6 289 175 105 98 205 241 141 114 118 117 115 112 112 109 107 107 106 105 102 89 67 49 45 39 28 21 8 10 8 355 322 330 318 307 324 305 318 11 46 88 90 53 27 11 6 358
9 290 210 282 214 135 91 182 224 135 122 128 122 118 116 118 114 118 116 119 122 124 121 111 75 45 46 44 38 39 37 31 31 11 312 334 311 295 293 274 18 30 53 53 33 20 3 352 347
283 11 342 5 278 168 62 162 153 155 129 137 134 129 125 127 137 128 128 132 137 140 140 139 135 137 145 61 9 2 358 10 14 22 32 26 26 13 354 358 325 37 68 36 16 2 343 331 332
90 82 81 262 343 77 186 162 191 179 125 141 136 133 133 137 154 138 144 148 153 156 158 158 151 149 169 186 122 56 344 334 329 330 332 340 340 342 352 1 11 10 351 340 334 326 326 317 327
67 51 357 306 351 47 152 226 221 87 153 153 142 137 142 135 151 157 161 165 175 176 183 180 162 147 122 86 47 17 354 336 332 326 317 307 290 313 329 322 317 322 326 316 326 320 322 312 327
49 85 353 267 329 347 55 339 181 49 116 112 129 144 152 159 165 172 177 186 188 185 190 172 153 150 157 175 231 290 290 311 318 318 324 317 327 322 320 316 311 325 314 301 291 293 289 305 306
25 254 343 324 47 278 86 258 308 171 112 144 155 153 159 164 158 180 200 187 185 232 200 168 181 196 207 216 222 218 245 276 298 303 298 294 297 302 308 296 297 296 282 273 288 281 275 277 286
230 327 310 260 265 35 359 73 299 25 139 194 49 111 93 124 163 54 73 119 99 107 144 184 209 212 225 237 249 260 248 253 264 255 265 275 288 289 298 290 347 41 327 10 353 274 288 312 324
359 8 353 32 89 40 260 137 335 319 265 47 87 102 148 66 67 64 72 84 39 136 137 135 124 123 289 303 288 275 266 264 255 253 255 269 290 286 275 272 259 278 298 316 322 317 322 323 311
38 44 347 4 12 225 346 59 219 262 129 133 140 135 87 78 57 22 360 351 157 162 73 26 42 41 30 21 8 3 358 337 306 288 281 283 278 270 274 274 274 276 282 281 278 284 288 299 308
332 129 143 265 304 279 346 122 235 219 136 119 116 110 90 70 12 324 342 20 60 57 60 54 24 19 10 1 351 340 328 319 310 307 306 302 283 276 274 269 275 282 288 284 280 278 276 281 287
323 42 184 115 350 37 252 24 353 212 153 89 83 96 67 19 347 352 55 80 84 64 56 44 23 8 356 342 329 321 314 310 309 307 298 290 279 274 273 279 283 289 295 290 289 293 293 288 282
135 180 40 14 309 306 296 203 223 230 237 87 90 89 48 15 28 49 74 92 74 57 31 6 351 340 330 320 313 314 313 310 304 304 301 306 305 294 280 272 277 282 283 283 284 295 288 284 281
21 23 61 113 139 171 277 282 218 221 118 118 118 203 188 79 63 44 77 89 83 62 22 349 336 325 327 327 323 319 314 307 300 299 299 299 300 287 280 279 281 278 275 276 280 281 279 275 278
173 175 130 116 260 180 153 266 48 124 130 126 155 52 61 93 64 334 80 74 53 13 344 340 344 342 338 327 321 322 321 318 314 308 308 306 293 289 285 275 270 273 271 274 272 270 274 276 276